| time (UTC) | temp C | wind direction | speed KPH | gust KPH | rain 1hr cm | rain 24hr cm | rain mn cm | humidity % | barometer mb |
| 20260510231545 | 9 | 290 | 0.0 | 1.6 | 0.00 | 0.05 | 0.00 | 88 | 1003.8 |
| 20260510230043 | 9 | 290 | 0.0 | 1.6 | 0.00 | 0.05 | 0.00 | 88 | 1004.1 |
| 20260510224557 | 9 | 290 | 0.0 | 3.2 | 0.00 | 0.05 | 0.00 | 88 | 1004.2 |
| 20260510223040 | 9 | 290 | 1.6 | 3.2 | 0.00 | 0.05 | 0.00 | 88 | 1004.3 |
| 20260510221544 | 9 | 290 | 0.0 | 1.6 | 0.00 | 0.05 | 0.00 | 88 | 1004.5 |
| 20260510220036 | 9 | 290 | 0.0 | 4.8 | 0.00 | 0.05 | 0.00 | 88 | 1004.5 |
| 20260510214548 | 9 | 290 | 1.6 | 4.8 | 0.00 | 0.05 | 0.05 | 88 | 1004.5 |
| 20260510213033 | 9 | 290 | 3.2 | 6.4 | 0.00 | 0.05 | 0.05 | 87 | 1004.6 |
| 20260510211533 | 9 | 290 | 3.2 | 4.8 | 0.00 | 0.05 | 0.05 | 87 | 1004.7 |
| 20260510210031 | 9 | 290 | 3.2 | 6.4 | 0.00 | 0.05 | 0.05 | 86 | 1004.7 |
| 20260510204529 | 9 | 290 | 3.2 | 4.8 | 0.00 | 0.05 | 0.05 | 86 | 1005.1 |
| 20260510203033 | 10 | 290 | 0.0 | 1.6 | 0.00 | 0.05 | 0.05 | 85 | 1005.2 |
| 20260510201524 | 10 | 290 | 0.0 | 0.0 | 0.00 | 0.05 | 0.05 | 84 | 1005.2 |
| 20260510200026 | 10 | 290 | 1.6 | 4.8 | 0.00 | 0.05 | 0.05 | 83 | 1005.4 |
| 20260510194521 | 10 | 290 | 0.0 | 1.6 | 0.00 | 0.05 | 0.05 | 83 | 1005.7 |
| 20260510193018 | 11 | 290 | 0.0 | 0.0 | 0.00 | 0.05 | 0.05 | 82 | 1005.7 |
| 20260510191519 | 11 | 290 | 1.6 | 3.2 | 0.00 | 0.05 | 0.05 | 79 | 1005.7 |
| 20260510190021 | 11 | 290 | 1.6 | 4.8 | 0.00 | 0.05 | 0.05 | 78 | 1005.8 |
| 20260510184514 | 12 | 290 | 3.2 | 4.8 | 0.00 | 0.05 | 0.05 | 77 | 1005.9 |
| 20260510183014 | 12 | 290 | 1.6 | 4.8 | 0.00 | 0.05 | 0.05 | 77 | 1006.0 |
| 20260510181519 | 12 | 294 | 0.0 | 4.8 | 0.00 | 0.05 | 0.05 | 77 | 1005.9 |
| 20260510180011 | 13 | 293 | 3.2 | 4.8 | 0.00 | 0.05 | 0.05 | 77 | 1005.9 |
| 20260510174512 | 13 | 293 | 3.2 | 6.4 | 0.00 | 0.05 | 0.05 | 76 | 1006.0 |
| 20260510173010 | 13 | 298 | 4.8 | 12.9 | 0.00 | 0.05 | 0.05 | 76 | 1006.1 |
| 20260510171511 | 14 | 315 | 9.7 | 16.1 | 0.00 | 0.05 | 0.05 | 74 | 1006.2 |
| 20260510170006 | 15 | 293 | 8.0 | 16.1 | 0.00 | 0.05 | 0.05 | 77 | 1006.3 |
| 20260510164504 | 15 | 288 | 9.7 | 12.9 | 0.00 | 0.05 | 0.05 | 79 | 1006.5 |
| 20260510163002 | 15 | 304 | 4.8 | 8.0 | 0.05 | 0.05 | 0.05 | 78 | 1006.7 |
| 20260510161600 | 15 | 43 | 0.0 | 1.6 | 0.05 | 0.05 | 0.05 | 76 | 1006.9 |
| 20260510154556 | 15 | 65 | 1.6 | 4.8 | 0.05 | 0.05 | 0.05 | 76 | 1007.3 |
| 20260510153054 | 15 | 302 | 0.0 | 8.0 | 0.03 | 0.03 | 0.03 | 72 | 1007.6 |
| 20260510151558 | 16 | 299 | 1.6 | 8.0 | 0.00 | 0.00 | 0.00 | 66 | 1007.6 |
| 20260510150055 | 16 | 299 | 1.6 | 4.8 | 0.00 | 0.00 | 0.00 | 63 | 1007.6 |
| 20260510144552 | 16 | 276 | 1.6 | 4.8 | 0.00 | 0.00 | 0.00 | 61 | 1007.6 |
| 20260510143048 | 15 | 258 | 1.6 | 6.4 | 0.00 | 0.00 | 0.00 | 70 | 1007.9 |
| 20260510141552 | 15 | 209 | 4.8 | 11.3 | 0.00 | 0.00 | 0.00 | 69 | 1008.1 |
| 20260510140052 | 15 | 223 | 3.2 | 11.3 | 0.00 | 0.00 | 0.00 | 73 | 1008.2 |
| 20260510134542 | 15 | 184 | 3.2 | 9.7 | 0.00 | 0.00 | 0.00 | 70 | 1008.3 |
| 20260510133040 | 15 | 194 | 6.4 | 11.3 | 0.00 | 0.00 | 0.00 | 70 | 1008.4 |
| 20260510131539 | 14 | 182 | 3.2 | 11.3 | 0.00 | 0.00 | 0.00 | 70 | 1008.5 |
| 20260510130040 | 15 | 173 | 8.0 | 16.1 | 0.00 | 0.00 | 0.00 | 69 | 1008.7 |
| 20260510124539 | 16 | 138 | 1.6 | 8.0 | 0.00 | 0.00 | 0.00 | 58 | 1008.7 |
| 20260510123034 | 16 | 181 | 1.6 | 4.8 | 0.00 | 0.00 | 0.00 | 57 | 1008.9 |
| 20260510121533 | 17 | 305 | 3.2 | 11.3 | 0.00 | 0.00 | 0.00 | 59 | 1008.9 |
| 20260510120031 | 17 | 298 | 1.6 | 8.0 | 0.00 | 0.00 | 0.00 | 57 | 1009.1 |
| 20260510114535 | 18 | 315 | 0.0 | 19.3 | 0.00 | 0.00 | 0.00 | 54 | 1009.3 |
| 20260510113027 | 17 | 291 | 9.7 | 14.5 | 0.00 | 0.00 | 0.00 | 62 | 1009.4 |
| 20260510111522 | 16 | 315 | 0.0 | 8.0 | 0.00 | 0.00 | 0.00 | 69 | 1009.5 |
| 20260510110018 | 15 | 287 | 1.6 | 6.4 | 0.00 | 0.00 | 0.00 | 72 | 1009.6 |
| 20260510104528 | 14 | 313 | 1.6 | 4.8 | 0.00 | 0.00 | 0.00 | 74 | 1009.6 |
| 20260510103012 | 13 | 313 | 0.0 | 1.6 | 0.00 | 0.00 | 0.00 | 76 | 1009.8 |
| 20260510101506 | 13 | 313 | 0.0 | 1.6 | 0.00 | 0.00 | 0.00 | 77 | 1010.0 |
| 20260510100003 | 13 | 313 | 0.0 | 6.4 | 0.00 | 0.00 | 0.00 | 80 | 1010.2 |
| 20260510094559 | 12 | 279 | 0.0 | 6.4 | 0.00 | 0.00 | 0.00 | 79 | 1010.4 |
| 20260510093057 | 12 | 284 | 3.2 | 9.7 | 0.00 | 0.00 | 0.00 | 79 | 1010.5 |
| 20260510091555 | 12 | 184 | 0.0 | 3.2 | 0.00 | 0.00 | 0.00 | 79 | 1010.6 |
| 20260510090053 | 12 | 184 | 0.0 | 3.2 | 0.00 | 0.00 | 0.00 | 80 | 1010.8 |
| 20260510084549 | 12 | 151 | 0.0 | 3.2 | 0.00 | 0.00 | 0.00 | 79 | 1010.9 |
| 20260510083047 | 11 | 150 | 1.6 | 4.8 | 0.00 | 0.00 | 0.00 | 79 | 1011.0 |
| 20260510081554 | 11 | 151 | 1.6 | 4.8 | 0.00 | 0.00 | 0.00 | 78 | 1011.2 |
| 20260510080042 | 11 | 142 | 0.0 | 4.8 | 0.00 | 0.00 | 0.00 | 78 | 1011.1 |
| 20260510074540 | 11 | 143 | 1.6 | 4.8 | 0.00 | 0.00 | 0.00 | 78 | 1011.2 |
| 20260510073038 | 11 | 143 | 3.2 | 6.4 | 0.00 | 0.00 | 0.00 | 77 | 1011.2 |
| 20260510071537 | 11 | 119 | 3.2 | 6.4 | 0.00 | 0.00 | 0.00 | 79 | 1011.2 |
| 20260510070040 | 11 | 121 | 3.2 | 6.4 | 0.00 | 0.00 | 0.00 | 79 | 1011.2 |
| 20260510064536 | 11 | 137 | 1.6 | 6.4 | 0.00 | 0.00 | 0.00 | 80 | 1011.3 |
| 20260510063035 | 11 | 142 | 3.2 | 6.4 | 0.00 | 0.00 | 0.00 | 79 | 1011.3 |
| 20260510061532 | 11 | 125 | 1.6 | 6.4 | 0.00 | 0.00 | 0.00 | 79 | 1011.4 |
| 20260510060031 | 11 | 156 | 3.2 | 9.7 | 0.00 | 0.00 | 0.00 | 78 | 1011.5 |
| 20260510054540 | 11 | 236 | 1.6 | 16.1 | 0.00 | 0.00 | 0.00 | 78 | 1011.5 |
| 20260510053027 | 11 | 98 | 4.8 | 11.3 | 0.00 | 0.00 | 0.00 | 77 | 1011.5 |
| 20260510051532 | 11 | 93 | 3.2 | 9.7 | 0.00 | 0.00 | 0.00 | 77 | 1011.6 |
| 20260510050027 | 11 | 88 | 4.8 | 11.3 | 0.00 | 0.00 | 0.00 | 77 | 1011.7 |
| 20260510044519 | 11 | 90 | 6.4 | 9.7 | 0.00 | 0.00 | 0.00 | 77 | 1011.9 |
| 20260510043022 | 10 | 94 | 4.8 | 9.7 | 0.00 | 0.00 | 0.00 | 76 | 1012.0 |
| 20260510041515 | 10 | 115 | 1.6 | 4.8 | 0.00 | 0.00 | 0.00 | 77 | 1012.2 |
| 20260510040013 | 10 | 116 | 0.0 | 4.8 | 0.00 | 0.00 | 0.00 | 76 | 1012.5 |
| 20260510034511 | 10 | 117 | 0.0 | 6.4 | 0.00 | 0.00 | 0.00 | 76 | 1012.6 |
| 20260510033009 | 10 | 194 | 1.6 | 4.8 | 0.00 | 0.00 | 0.00 | 75 | 1012.6 |
| 20260510031508 | 11 | 107 | 1.6 | 6.4 | 0.00 | 0.00 | 0.00 | 73 | 1012.6 |
| 20260510030010 | 11 | 105 | 3.2 | 6.4 | 0.00 | 0.00 | 0.00 | 73 | 1012.8 |
| 20260510024504 | 11 | 100 | 3.2 | 6.4 | 0.00 | 0.00 | 0.00 | 72 | 1012.8 |
| 20260510023005 | 11 | 128 | 3.2 | 8.0 | 0.00 | 0.00 | 0.00 | 71 | 1012.9 |
| 20260510021505 | 11 | 125 | 4.8 | 11.3 | 0.00 | 0.00 | 0.00 | 70 | 1013.0 |
| 20260510020105 | 11 | 132 | 6.4 | 12.9 | 0.00 | 0.00 | 0.00 | 69 | 1013.2 |
| 20260510014615 | 11 | 103 | 6.4 | 12.9 | 0.00 | 0.00 | 0.00 | 69 | 1013.3 |
| 20260510013104 | 11 | 140 | 6.4 | 11.3 | 0.00 | 0.00 | 0.00 | 71 | 1013.4 |
| 20260510011601 | 11 | 113 | 4.8 | 9.7 | 0.00 | 0.00 | 0.00 | 71 | 1013.6 |
| 20260510010053 | 11 | 107 | 4.8 | 12.9 | 0.00 | 0.00 | 0.00 | 68 | 1013.7 |
| 20260510004555 | 11 | 91 | 8.0 | 14.5 | 0.00 | 0.00 | 0.00 | 67 | 1014.0 |
| 20260510003049 | 11 | 106 | 4.8 | 11.3 | 0.00 | 0.00 | 0.00 | 68 | 1014.3 |
| 20260510001547 | 11 | 103 | 4.8 | 9.7 | 0.00 | 0.00 | 0.00 | 69 | 1014.4 |
| 20260510000045 | 11 | 89 | 6.4 | 12.9 | 0.00 | 0.00 | 0.00 | 68 | 1014.7 |
| 20260509234541 | 11 | 74 | 6.4 | 11.3 | 0.00 | 0.00 | 0.00 | 68 | 1014.9 |
| 20260509233036 | 11 | 137 | 8.0 | 12.9 | 0.00 | 0.00 | 0.00 | 67 | 1015.1 |